Other Surface Observations
Issued by NWS Charleston, SC

Current Version | Previous Version | Text Only | Print | Product List | Glossary On
Versions: 1 2 3 4 5 6 7 8 9 10 11 12 13 14 15 16 17 18 19 20 21 22 23 24 25 26 27 28 29 30 31 32 33 34 35 36 37 38 39 40 41 42 43 44 45 46 47 48 49 50
345
SXUS52 KCHS 240826
OSOCHS

MARINE OBSERVATIONS
NATIONAL WEATHER SERVICE CHARLESTON SC
300 AM EST FRI FEB 24 2017

...DOWNTOWN CHARLESTON AND HARBOR...

CITY           SKY/WX    TMP DP  RH WIND       PRES   REMARKS
WATERFRONT PRK   N/A     61  60  97 N7        29.85S

...LAKE MOULTRIE...

CITY           SKY/WX    TMP DP  RH WIND       PRES   REMARKS
PINOPOLIS        N/A     59  59 100 VRB3      29.78F

...LAKE AND SUPPLEMENTAL COASTAL OBSERVATIONS...

STATION/POSITION TIME  TEMP    WIND        PRES    WAVE   SWELL
                       AIR SEA DIR/SP/G            HT/PER HT/PER/DIR
                 (UTC) (F)     (DEG/KT/KT) (MB)    (FT/S) (FT/S/D)
FORT PULASKI     0800   62 62  360/  5/  7 1011.0
SAPELO ISLAND    0800   62      20/  7     1010.0
WINYAH BAY       0745   62      20/  5     1011.0S
LAKE MURRAY      0820   57        CALM     1011.9
ACE BASIN NERRS  0730   60     360/  2     1011.0S


...C-MAN AND BUOY OBSERVATIONS...

STATION/POSITION TIME  TEMP    WIND        PRES    WAVE   SWELL
                       AIR SEA DIR/SP/G            HT/PER HT/PER/DIR
                 (UTC) (F)     (DEG/KT/KT) (MB)    (FT/S) (FT/S/D)
BUOY 41004       0750   71 70   70/ 12/ 14 1009.7F  10/10  10/140/10
BUOY 41008       0750   63 62   10/ 12/ 14 1009.4F   6/ 9   5/110/ 9
FOLLY BEACH CMAN 0800   60     350/  6/  8 1011.4S
CAPERS NS BUOY   0808   61 60   40/ 12/ 14 1010.9F
FRIPP NS BUOY    0808   63 61   10/ 10/ 12 1010.4R
5E ST. MARYS GA  0800      64                N/A     7/10   2/110/11


STATION/POSITION TIME  TEMP    WIND        PRES    WAVE   SWELL
                       AIR SEA DIR/SP/G            HT/PER HT/PER/DIR
                 (UTC) (F)     (DEG/KT/KT) (MB)    (FT/S) (FT/S/D)
FRYING PAN BUOY  0810   70 72   60/ 10/ 14 1011.0
BUOY 41025       0750   71 73  140/ 16/ 19 1012.7F   6/ 7   3/ 60/11
CAPE LOOKOUT NC  0800   64      CALM  /  1 1012.3F
BUOY 41002       0750   68 69   90/ 21/ 27 1007.8F  11/ 8   7/100/11
BUOY 41010       NOT AVBL
ST AUGUSTINE FL  0800   65 66  350/ 17/ 19 1008.9F

$$




USA.gov is the U.S. government's official web portal to all federal, state and local government web resources and services.